Regional Weather Roundup
Issued by NWS

Home | Current Version | Previous Version | Text Only | Print | Product List | Glossary Off
Versions: 1 2 3 4 5 6 7 8 9 10 11 12 13 14 15 16 17 18 19 20 21 22 23 24 25 26 27 28 29 30 31 32 33 34 35 36 37 38 39 40 41 42 43 44 45 46 47 48 49 50

000
ASUS43 KBIS 251902
RWRND

NORTH DAKOTA REGIONAL WEATHER ROUNDUP
NATIONAL WEATHER SERVICE BISMARCK ND
200 PM CDT MON JUL 25 2016

NOTE: "FAIR" INDICATES FEW OR NO CLOUDS BELOW 12,000 FEET WITH NO
SIGNIFICANT WEATHER AND/OR OBSTRUCTIONS TO VISIBILITY.


NDZ001>003-009>011-017-252000-
NORTHWEST NORTH DAKOTA

CITY           SKY/WX    TMP DP  RH WIND       PRES   REMARKS
WILLISTON      SUNNY     89  53  29 NE7       29.97F
MINOT          SUNNY     88  62  41 E7        29.95S
MINOT AFB      SUNNY     83  61  46 VRB6      29.94F
$$

NDZ018>021-031>035-040>046-252000-
SOUTHWEST NORTH DAKOTA

CITY           SKY/WX    TMP DP  RH WIND       PRES   REMARKS
BISMARCK       SUNNY     88  66  48 S10       29.96F HX  90
DICKINSON      SUNNY     89  52  28 VRB3      29.98S
GARRISON         N/A     83  64  52 E3        29.96F
HETTINGER ARPT SUNNY     97  51  21 SE9G16    29.99F HX  94
$$

NDZ004>008-012>016-024-026-027-054-252000-
NORTHEAST NORTH DAKOTA

CITY           SKY/WX    TMP DP  RH WIND       PRES   REMARKS
GRAND FORKS    SUNNY     85  63  47 SE12      29.97F
GRND FRKS AFB  SUNNY     84  63  49 S8        29.98F
DEVILS LAKE    SUNNY     83  64  52 SE9       29.98F
$$

NDZ022-023-025-028>030-036>039-047>053-252000-
SOUTHEAST NORTH DAKOTA

CITY           SKY/WX    TMP DP  RH WIND       PRES   REMARKS
FARGO          SUNNY     85  64  49 S13G21    30.00F
JAMESTOWN      SUNNY     88  62  41 S18G25    29.97F
$$





USA.gov is the U.S. government's official web portal to all federal, state and local government web resources and services.